SB KEPS @ AMSAT $ORB11248.O Orbital Elements 11248.OSCAR
HR AMSAT ORBITAL ELEMENTS FOR OSCAR SATELLITES FROM WA5QGD FORT WORTH,TX September 5, 2011 Send Subscribe/unsubscribe to KEPS at http://www.amsat.org/mailman/listinfo/keps BID: ORB11248.O TO ALL RADIO AMATEURS BT
Satellite: AO-07 Catalog number: 07530 Epoch time: 11247.64286654 Element set: 171 Inclination: 101.3958 deg RA of node: 251.0560 deg Eccentricity: 0.0012085 Arg of perigee: 122.8610 deg Mean anomaly: 237.3621 deg Mean motion: 12.53583865 rev/day Decay rate: -2.7e-07 rev/day^2 Epoch rev: 68414 Checksum: 283
Satellite: FO-29 Catalog number: 24278 Epoch time: 11247.92350374 Element set: 0676 Inclination: 098.5607 deg RA of node: 021.3445 deg Eccentricity: 0.0351192 Arg of perigee: 050.6989 deg Mean anomaly: 312.4736 deg Mean motion: 13.52964027 rev/day Decay rate: -2.2e-07 rev/day^2 Epoch rev: 74324 Checksum: 314
Satellite: SO-33 Catalog number: 25509 Epoch time: 11247.76635877 Element set: 0048 Inclination: 031.4324 deg RA of node: 154.2142 deg Eccentricity: 0.0353839 Arg of perigee: 217.6378 deg Mean anomaly: 139.9078 deg Mean motion: 14.28440830 rev/day Decay rate: 3.28e-06 rev/day^2 Epoch rev: 67166 Checksum: 324
Satellite: RS-22 Catalog number: 27939 Epoch time: 11248.62025113 Element set: 602 Inclination: 097.8368 deg RA of node: 098.7396 deg Eccentricity: 0.0014663 Arg of perigee: 089.6248 deg Mean anomaly: 270.6636 deg Mean motion: 14.63634249 rev/day Decay rate: 2.25e-06 rev/day^2 Epoch rev: 42410 Checksum: 320
Satellite: VO-52 Catalog number: 28650 Epoch time: 11247.75941323 Element set: 0891 Inclination: 097.6348 deg RA of node: 287.3048 deg Eccentricity: 0.0025619 Arg of perigee: 260.7520 deg Mean anomaly: 099.0800 deg Mean motion: 14.82160918 rev/day Decay rate: 8.36e-06 rev/day^2 Epoch rev: 34253 Checksum: 319
Satellite: SO-67 Catalog number: 35870 Epoch time: 11248.74792147 Element set: 192 Inclination: 097.2733 deg RA of node: 289.4032 deg Eccentricity: 0.0003964 Arg of perigee: 095.2759 deg Mean anomaly: 358.4252 deg Mean motion: 15.21038629 rev/day Decay rate: 1.930e-05 rev/day^2 Epoch rev: 10918 Checksum: 330
Satellite: HO-68 Catalog number: 36122 Epoch time: 11248.73099060 Element set: 712 Inclination: 100.4067 deg RA of node: 308.2950 deg Eccentricity: 0.0007668 Arg of perigee: 043.5531 deg Mean anomaly: 316.6194 deg Mean motion: 13.16288000 rev/day Decay rate: -4.4e-07 rev/day^2 Epoch rev: 8283 Checksum: 281
/EX SB KEPS @ AMSAT $ORB11248.D Orbital Elements 11248.MICROS
HR AMSAT ORBITAL ELEMENTS FOR THE MICROSATS FROM WA5QGD FORT WORTH,TX September 5, 2011 Send Subscribe/unsubscribe to KEPS at http://www.amsat.org/mailman/listinfo/keps BID: ORB11248.D TO ALL RADIO AMATEURS BT
Satellite: UO-11 Catalog number: 14781 Epoch time: 11248.72819886 Element set: 646 Inclination: 097.9970 deg RA of node: 305.1520 deg Eccentricity: 0.0007920 Arg of perigee: 235.1719 deg Mean anomaly: 124.8748 deg Mean motion: 14.80024286 rev/day Decay rate: 2.90e-06 rev/day^2 Epoch rev: 47770 Checksum: 322
Satellite: AO-16 Catalog number: 20439 Epoch time: 11248.44924927 Element set: 272 Inclination: 098.3911 deg RA of node: 195.4104 deg Eccentricity: 0.0010136 Arg of perigee: 289.0874 deg Mean anomaly: 070.9214 deg Mean motion: 14.31936750 rev/day Decay rate: 6.3e-07 rev/day^2 Epoch rev: 12910 Checksum: 292
Satellite: LO-19 Catalog number: 20442 Epoch time: 11247.88739771 Element set: 0203 Inclination: 098.3550 deg RA of node: 198.9154 deg Eccentricity: 0.0010962 Arg of perigee: 282.0671 deg Mean anomaly: 077.9284 deg Mean motion: 14.32161163 rev/day Decay rate: 1.38e-06 rev/day^2 Epoch rev: 12920 Checksum: 304
Satellite: AO-27 Catalog number: 22825 Epoch time: 11248.51216645 Element set: 906 Inclination: 098.5371 deg RA of node: 191.3305 deg Eccentricity: 0.0009111 Arg of perigee: 044.0453 deg Mean anomaly: 316.1455 deg Mean motion: 14.29360873 rev/day Decay rate: -4.0e-08 rev/day^2 Epoch rev: 93566 Checksum: 290
Satellite: IO-26 Catalog number: 22826 Epoch time: 11247.86695822 Element set: 0672 Inclination: 098.5296 deg RA of node: 191.1477 deg Eccentricity: 0.0009780 Arg of perigee: 039.6387 deg Mean anomaly: 320.5506 deg Mean motion: 14.29624709 rev/day Decay rate: 4.6e-07 rev/day^2 Epoch rev: 93569 Checksum: 351
Satellite: GO-32 Catalog number: 25397 Epoch time: 11248.48012589 Element set: 571 Inclination: 098.3339 deg RA of node: 236.7748 deg Eccentricity: 0.0001946 Arg of perigee: 064.0630 deg Mean anomaly: 296.0740 deg Mean motion: 14.23217005 rev/day Decay rate: -7.6e-07 rev/day^2 Epoch rev: 68338 Checksum: 314
Satellite: NO-44 Catalog number: 26931 Epoch time: 11247.86213124 Element set: 0844 Inclination: 067.0517 deg RA of node: 138.2258 deg Eccentricity: 0.0005427 Arg of perigee: 255.6120 deg Mean anomaly: 104.4391 deg Mean motion: 14.29676671 rev/day Decay rate: 8.9e-07 rev/day^2 Epoch rev: 51831 Checksum: 298
Satellite: SO-50 Catalog number: 27607 Epoch time: 11247.70110482 Element set: 0558 Inclination: 064.5576 deg RA of node: 086.0409 deg Eccentricity: 0.0078923 Arg of perigee: 304.4510 deg Mean anomaly: 054.9150 deg Mean motion: 14.71801726 rev/day Decay rate: 7.5e-07 rev/day^2 Epoch rev: 46779 Checksum: 306
Satellite: CO-55 Catalog number: 27844 Epoch time: 11247.61200551 Element set: 191 Inclination: 098.7084 deg RA of node: 255.1658 deg Eccentricity: 0.0009680 Arg of perigee: 335.6002 deg Mean anomaly: 024.4705 deg Mean motion: 14.20838850 rev/day Decay rate: 1.28e-06 rev/day^2 Epoch rev: 42419 Checksum: 293
Satellite: CO-57 Catalog number: 27848 Epoch time: 11247.99041090 Element set: 140 Inclination: 098.7147 deg RA of node: 254.7550 deg Eccentricity: 0.0009474 Arg of perigee: 339.2843 deg Mean anomaly: 020.7956 deg Mean motion: 14.20615070 rev/day Decay rate: 8.6e-07 rev/day^2 Epoch rev: 42419 Checksum: 313
Satellite: AO-51 Catalog number: 28375 Epoch time: 11248.80935756 Element set: 63 Inclination: 098.1065 deg RA of node: 223.0517 deg Eccentricity: 0.0083038 Arg of perigee: 185.2125 deg Mean anomaly: 174.8208 deg Mean motion: 14.40776603 rev/day Decay rate: 4.5e-07 rev/day^2 Epoch rev: 37767 Checksum: 312
Satellite: CP3 Catalog number: 31129 Epoch time: 11248.53975377 Element set: 961 Inclination: 097.8951 deg RA of node: 268.0994 deg Eccentricity: 0.0100170 Arg of perigee: 291.5888 deg Mean anomaly: 067.4668 deg Mean motion: 14.52551790 rev/day Decay rate: 2.50e-06 rev/day^2 Epoch rev: 23250 Checksum: 328
Satellite: CO-65 Catalog number: 32785 Epoch time: 11247.61082853 Element set: 0090 Inclination: 097.8408 deg RA of node: 309.9573 deg Eccentricity: 0.0013712 Arg of perigee: 277.8733 deg Mean anomaly: 082.0986 deg Mean motion: 14.82098529 rev/day Decay rate: 8.12e-06 rev/day^2 Epoch rev: 18130 Checksum: 331
Satellite: PRISM Catalog number: 33493 Epoch time: 11248.78650567 Element set: 932 Inclination: 098.1347 deg RA of node: 018.6258 deg Eccentricity: 0.0020539 Arg of perigee: 137.9539 deg Mean anomaly: 222.3267 deg Mean motion: 14.81887963 rev/day Decay rate: 1.348e-05 rev/day^2 Epoch rev: 14145 Checksum: 332
Satellite: SOHLA-1 Catalog number: 33496 Epoch time: 11247.84562492 Element set: 0520 Inclination: 098.0865 deg RA of node: 356.8971 deg Eccentricity: 0.0005763 Arg of perigee: 224.7641 deg Mean anomaly: 135.3089 deg Mean motion: 14.69650720 rev/day Decay rate: 1.35e-06 rev/day^2 Epoch rev: 14018 Checksum: 312
Satellite: TISAT-1 Catalog number: 36799 Epoch time: 11248.75931600 Element set: 206 Inclination: 098.0952 deg RA of node: 317.7864 deg Eccentricity: 0.0015655 Arg of perigee: 022.1600 deg Mean anomaly: 338.0280 deg Mean motion: 14.80689056 rev/day Decay rate: 7.57e-06 rev/day^2 Epoch rev: 6223 Checksum: 305
Satellite: STUDSAT Catalog number: 36801 Epoch time: 11247.74454203 Element set: 235 Inclination: 098.1019 deg RA of node: 316.6846 deg Eccentricity: 0.0014086 Arg of perigee: 013.0019 deg Mean anomaly: 347.1550 deg Mean motion: 14.80945590 rev/day Decay rate: 2.049e-05 rev/day^2 Epoch rev: 6207 Checksum: 275
Satellite: OOREOS Catalog number: 37224 Epoch time: 11153.29456974 Element set: 0179 Inclination: 071.9726 deg RA of node: 071.8135 deg Eccentricity: 0.0020315 Arg of perigee: 307.7637 deg Mean anomaly: 052.1684 deg Mean motion: 14.77036357 rev/day Decay rate: 4.92e-06 rev/day^2 Epoch rev: 02867 Checksum: 309
Satellite: FO-69 Catalog number: 37227 Epoch time: 11246.44010383 Element set: 0121 Inclination: 071.9667 deg RA of node: 226.7145 deg Eccentricity: 0.0016196 Arg of perigee: 141.1269 deg Mean anomaly: 219.1061 deg Mean motion: 14.76632638 rev/day Decay rate: 1.73e-06 rev/day^2 Epoch rev: 02087 Checksum: 291
Satellite: NANOSALD Catalog number: 37361 Epoch time: 11242.25215765 Element set: 0351 Inclination: 071.9735 deg RA of node: 221.4469 deg Eccentricity: 0.0025730 Arg of perigee: 245.3422 deg Mean anomaly: 114.7284 deg Mean motion: 15.22200108 rev/day Decay rate: 1.80112e-03 rev/day^2 Epoch rev: 03331 Checksum: 248
Satellite: FO-70 Catalog number: 37380 Epoch time: 11246.46620481 Element set: 0258 Inclination: 071.9703 deg RA of node: 226.8591 deg Eccentricity: 0.0016523 Arg of perigee: 137.3020 deg Mean anomaly: 222.9438 deg Mean motion: 14.76397934 rev/day Decay rate: 2.22e-06 rev/day^2 Epoch rev: 04241 Checksum: 291
/EX SB KEPS @ AMSAT $ORB11248.W Orbital Elements 11248.WEATHER
HR AMSAT ORBITAL ELEMENTS FOR WEATHER SATELLITES FROM WA5QGD FORT WORTH,TX September 5, 2011 Send Subscribe/unsubscribe to KEPS at http://www.amsat.org/mailman/listinfo/keps BID: ORB11248.W TO ALL RADIO AMATEURS BT
Satellite: NOAA-10 Catalog number: 16969 Epoch time: 11247.97668736 Element set: 0631 Inclination: 098.6160 deg RA of node: 276.6610 deg Eccentricity: 0.0012378 Arg of perigee: 356.4620 deg Mean anomaly: 003.6472 deg Mean motion: 14.27474773 rev/day Decay rate: 1.5e-07 rev/day^2 Epoch rev: 29903 Checksum: 322
